31-03-2023, 00:00:02,    173,    0.8,    7.9,   0.00,   0.00,  991.5,    1.0, -999.0
31-03-2023, 00:00:13,    160,    1.9,    8.0,   0.00,   0.00,  991.5,    0.3, -999.0
31-03-2023, 00:00:23,    129,    2.7,    7.8,   0.00,   0.00,  991.6,    0.5, -999.0
31-03-2023, 00:00:32,    147,    4.4,    7.8,   0.00,   0.00,  991.5,    0.9, -999.0
31-03-2023, 00:00:42,    160,    4.2,    7.9,   0.00,   0.00,  991.6,    0.3, -999.0
31-03-2023, 00:00:53,    165,    2.0,    7.8,   0.00,   0.00,  991.5,    0.3, -999.0
31-03-2023, 00:01:02,    130,    1.8,    7.8,   0.00,   0.00,  991.5,    1.1, -999.0
31-03-2023, 00:01:12,    108,    2.7,    7.8,   0.00,   0.00,  991.5,    1.0, -999.0
31-03-2023, 00:01:22,    134,    3.0,    7.9,   0.00,   0.00,  991.5,    0.8, -999.0
31-03-2023, 00:01:33,    142,    3.3,    7.9,   0.00,   0.01,  991.5,    0.8, -999.0
31-03-2023, 00:01:42,    144,    2.1,    7.9,   0.00,   0.00,  991.5,    0.9, -999.0
31-03-2023, 00:01:52,    174,    2.9,    7.9,   0.00,   0.00,  991.5,    0.4, -999.0
31-03-2023, 00:02:03,    180,    2.9,    7.8,   0.00,   0.00,  991.5,    0.4, -999.0
31-03-2023, 00:02:12,    156,    4.9,    7.9,   0.00,   0.00,  991.5,    0.3, -999.0
31-03-2023, 00:02:22,    159,    2.5,    7.9,   0.00,   0.00,  991.5,    0.3, -999.0
31-03-2023, 00:02:32,    137,    2.3,    7.8,   0.00,   0.00,  991.5,    0.9, -999.0
31-03-2023, 00:02:43,    160,    3.2,    7.9,   0.00,   0.00,  991.5,    0.3, -999.0
31-03-2023, 00:02:52,    160,    1.0,    7.8,   0.00,   0.00,  991.4,    0.3, -999.0
31-03-2023, 00:03:02,    159,    0.5,    7.8,   0.00,   0.01,  991.3,    0.9, -999.0
31-03-2023, 00:03:12,    165,    1.8,    7.8,   0.00,   0.00,  991.4,    0.7, -999.0
31-03-2023, 00:03:22,    161,    2.1,    7.9,   0.00,   0.00,  991.4,    0.8, -999.0
31-03-2023, 00:03:32,    165,    2.2,    7.8,   0.00,   0.00,  991.4,    0.8, -999.0
31-03-2023, 00:03:42,    164,    0.8,    7.8,   0.00,   0.00,  991.4,    0.4, -999.0
31-03-2023, 00:03:52,    164,    0.2,    7.8,   0.00,   0.00,  991.4,    0.5, -999.0
31-03-2023, 00:04:02,    150,    0.8,    7.7,   0.00,   0.00,  991.4,    0.5, -999.0
31-03-2023, 00:04:12,    150,    1.5,    7.9,   0.00,   0.00,  991.4,    0.9, -999.0
31-03-2023, 00:04:22,    149,    2.2,    7.9,   0.00,   0.00,  991.4,    0.6, -999.0
31-03-2023, 00:04:32,    149,    3.1,    7.8,   0.00,   0.00,  991.4,    0.3, -999.0
31-03-2023, 00:04:42,    170,    2.5,    7.9,   0.00,   0.00,  991.4,    0.3, -999.0
31-03-2023, 00:04:52,    174,    1.0,    7.8,   0.00,   0.00,  991.4,    0.6, -999.0
31-03-2023, 00:05:02,    174,    0.6,    7.7,   0.00,   0.00,  991.4,    0.2, -999.0
31-03-2023, 00:05:12,    173,    0.4,    7.8,   0.00,   0.00,  991.3,    0.6, -999.0
31-03-2023, 00:05:22,    173,    0.4,    7.9,   0.00,   0.00,  991.3,    0.6, -999.0
31-03-2023, 00:05:32,    173,    0.5,    7.8,   0.00,   0.00,  991.4,    0.7, -999.0
31-03-2023, 00:05:42,    173,    0.0,    7.8,   0.00,   0.00,  991.3,    0.4, -999.0
31-03-2023, 00:05:52,    165,    1.7,    7.7,   0.00,   0.01,  991.3,    0.4, -999.0
31-03-2023, 00:06:02,    148,    4.6,    7.8,   0.00,   0.00,  991.4,    0.5, -999.0
31-03-2023, 00:06:12,    152,    3.8,    7.8,   0.00,   0.00,  991.3,    0.3, -999.0
31-03-2023, 00:06:22,    149,    3.7,    7.8,   0.00,   0.00,  991.3,    0.6, -999.0
31-03-2023, 00:06:32,    186,    3.7,    7.8,   0.00,   0.01,  991.3,    0.7, -999.0
31-03-2023, 00:06:42,    154,    1.5,    7.8,   0.00,   0.00,  991.3,    0.5, -999.0
31-03-2023, 00:06:52,    154,    1.4,    7.9,   0.00,   0.00,  991.3,    0.5, -999.0
31-03-2023, 00:07:02,    153,    1.2,    7.8,   0.00,   0.00,  991.3,    0.7, -999.0
31-03-2023, 00:07:12,    196,    1.3,    7.8,   0.00,   0.00,  991.3,    0.4, -999.0
31-03-2023, 00:07:22,    190,    0.6,    7.8,   0.00,   0.00,  991.2,    0.4, -999.0
31-03-2023, 00:07:32,    190,    0.0,    7.7,   0.00,   0.00,  991.2,    0.3, -999.0
31-03-2023, 00:07:42,    173,    0.1,    7.7,   0.00,   0.00,  991.2,    0.8, -999.0
31-03-2023, 00:07:52,    134,    1.4,    7.9,   0.00,   0.00,  991.3,    0.7, -999.0
31-03-2023, 00:08:02,    148,    1.7,    7.9,   0.00,   0.00,  991.3,    0.5, -999.0
31-03-2023, 00:08:12,    156,    0.6,    7.9,   0.00,   0.00,  991.2,    0.6, -999.0
31-03-2023, 00:08:21,    157,    0.1,    7.9,   0.00,   0.00,  991.2,    0.5, -999.0
31-03-2023, 00:08:32,    172,    1.0,    7.9,   0.00,   0.00,  991.2,    0.3, -999.0
31-03-2023, 00:08:42,    168,    0.7,    7.8,   0.00,   0.00,  991.2,    0.4, -999.0
31-03-2023, 00:08:52,    168,    0.0,    7.8,   0.00,   0.00,  991.2,    0.7, -999.0
31-03-2023, 00:09:02,    166,    1.9,    7.8,   0.00,   0.00,  991.2,    0.5, -999.0
31-03-2023, 00:09:12,    166,    0.6,    7.8,   0.00,   0.00,  991.2,    0.5, -999.0
31-03-2023, 00:09:22,    112,    1.0,    7.8,   0.00,   0.00,  991.2,    0.3, -999.0
31-03-2023, 00:09:31,    112,    0.8,    7.9,   0.00,   0.00,  991.2,    0.6, -999.0
31-03-2023, 00:09:42,    112,    0.8,    7.8,   0.00,   0.00,  991.2,    0.7, -999.0
31-03-2023, 00:09:52,    112,    0.5,    7.8,   0.00,   0.00,  991.2,    0.3, -999.0
31-03-2023, 00:10:02,    113,    0.0,    7.8,   0.00,   0.00,  991.1,    0.4, -999.0
31-03-2023, 00:10:11,    146,    0.3,    7.8,   0.00,   0.00,  991.1,    0.5, -999.0
31-03-2023, 00:10:22,    145,    0.2,    7.8,   0.00,   0.00,  991.1,    0.5, -999.0
31-03-2023, 00:10:32,    154,    1.4,    8.0,   0.00,   0.00,  991.2,    0.7, -999.0
31-03-2023, 00:10:41,    163,    3.3,    7.8,   0.00,   0.00,  991.2,    0.8, -999.0
31-03-2023, 00:10:51,    149,    3.0,    7.9,   0.00,   0.00,  991.2,    0.6, -999.0
31-03-2023, 00:11:02,    149,    1.7,    7.8,   0.00,   0.00,  991.2,    0.5, -999.0
31-03-2023, 00:11:11,    149,    2.0,    7.8,   0.00,   0.00,  991.2,    0.5, -999.0
31-03-2023, 00:11:21,    150,    1.5,    7.8,   0.00,   0.01,  991.2,    0.6, -999.0
31-03-2023, 00:11:31,    150,    0.7,    7.9,   0.00,   0.00,  991.2,    0.6, -999.0
31-03-2023, 00:11:42,    150,    0.3,    7.8,   0.00,   0.00,  991.1,    0.3, -999.0
31-03-2023, 00:11:51,    147,    2.1,    7.9,   0.00,   0.00,  991.1,    0.5, -999.0
31-03-2023, 00:12:01,    114,    2.3,    7.9,   0.00,   0.00,  991.1,    0.4, -999.0
31-03-2023, 00:12:11,    118,    1.8,    7.8,   0.00,   0.00,  991.1,    0.4, -999.0
31-03-2023, 00:12:21,    118,    0.4,    7.8,   0.00,   0.00,  991.1,    0.6, -999.0
31-03-2023, 00:12:31,    118,    0.0,    7.8,   0.00,   0.00,  991.0,    0.4, -999.0
31-03-2023, 00:12:41,    118,    0.0,    7.8,   0.00,   0.00,  991.0,    0.5, -999.0
31-03-2023, 00:12:51,    118,    0.1,    7.8,   0.00,   0.00,  991.0,    0.5, -999.0
31-03-2023, 00:13:01,    171,    2.4,    7.9,   0.00,   0.00,  991.1,    0.5, -999.0
31-03-2023, 00:13:11,    153,    2.2,    7.8,   0.00,   0.01,  991.0,    0.7, -999.0
31-03-2023, 00:13:21,    153,    1.2,    7.9,   0.00,   0.00,  991.1,    0.3, -999.0
31-03-2023, 00:13:31,    153,    1.6,    7.9,   0.00,   0.00,  991.1,    0.2, -999.0
31-03-2023, 00:13:41,    153,    1.9,    7.8,   0.00,   0.00,  991.1,    0.2, -999.0
31-03-2023, 00:13:51,    100,    3.4,    7.9,   0.00,   0.00,  991.1,    0.6, -999.0
31-03-2023, 00:14:01,    119,    4.5,    7.9,   0.00,   0.00,  991.1,    0.0, -999.0
31-03-2023, 00:14:11,    180,    2.2,    7.8,   0.00,   0.01,  991.0,    0.4, -999.0
31-03-2023, 00:14:21,    112,    1.1,    7.8,   0.00,   0.00,  991.0,    1.0, -999.0
31-03-2023, 00:14:31,    114,    0.9,    7.8,   0.00,   0.00,  991.0,    0.2, -999.0
31-03-2023, 00:14:41,    124,    1.8,    7.8,   0.00,   0.00,  991.1,    0.1, -999.0
31-03-2023, 00:14:51,    146,    2.6,    7.8,   0.00,   0.00,  991.1,    0.0, -999.0
31-03-2023, 00:15:01,    147,    1.6,    7.7,   0.00,   0.00,  991.0,    0.6, -999.0
31-03-2023, 00:15:11,    192,    1.5,    7.9,   0.00,   0.00,  991.0,    0.4, -999.0
31-03-2023, 00:15:21,    194,    1.6,    7.8,   0.00,   0.00,  991.0,    0.6, -999.0
31-03-2023, 00:15:31,     89,    0.2,    7.8,   0.00,   0.00,  990.9,    0.6, -999.0
31-03-2023, 00:15:41,     97,    0.0,    7.7,   0.00,   0.00,  990.9,    0.5, -999.0
31-03-2023, 00:15:51,    175,    0.6,    7.8,   0.00,   0.00,  991.0,    0.2, -999.0
31-03-2023, 00:16:01,    174,    0.0,    7.7,   0.00,   0.00,  990.9,    0.5, -999.0
31-03-2023, 00:16:11,    174,    0.1,    7.7,   0.00,   0.00,  990.9,    0.4, -999.0
31-03-2023, 00:16:21,    117,    2.7,    7.8,   0.00,   0.00,  991.0,    0.6, -999.0
31-03-2023, 00:16:31,    113,    2.4,    7.9,   0.00,   0.00,  991.0,    0.6, -999.0
31-03-2023, 00:16:41,    101,    1.6,    7.9,   0.00,   0.01,  990.9,    0.4, -999.0
31-03-2023, 00:16:51,    163,    3.9,    8.0,   0.00,   0.00,  990.9,    0.3, -999.0
31-03-2023, 00:17:01,    146,    4.1,    8.0,   0.00,   0.00,  991.0,    0.6, -999.0
31-03-2023, 00:17:11,    145,    1.6,    7.9,   0.00,   0.00,  990.9,    0.5, -999.0
31-03-2023, 00:17:21,    145,    0.2,    7.8,   0.00,   0.00,  990.8,    0.4, -999.0
31-03-2023, 00:17:31,    149,    1.3,    7.8,   0.00,   0.00,  990.9,    0.7, -999.0
31-03-2023, 00:17:41,    148,    0.8,    7.9,   0.00,   0.00,  990.8,    0.5, -999.0
31-03-2023, 00:17:51,    148,    0.0,    7.8,   0.00,   0.00,  990.8,    0.5, -999.0
31-03-2023, 00:18:01,    148,    0.2,    7.9,   0.00,   0.00,  990.8,    0.5, -999.0
31-03-2023, 00:18:11,    148,    0.0,    7.9,   0.00,   0.00,  990.7,    0.5, -999.0
31-03-2023, 00:18:20,    148,    0.3,    7.8,   0.00,   0.00,  990.8,    0.5, -999.0
31-03-2023, 00:18:31,    148,    0.2,    7.8,   0.00,   0.00,  990.8,    0.6, -999.0
31-03-2023, 00:18:41,    140,    2.3,    7.9,   0.00,   0.00,  990.9,    0.5, -999.0
31-03-2023, 00:18:51,    161,    5.1,    7.9,   0.00,   0.00,  990.9,    0.7, -999.0
31-03-2023, 00:19:00,    148,    4.6,    7.8,   0.00,   0.00,  990.8,    0.5, -999.0
31-03-2023, 00:19:11,    155,    2.9,    7.8,   0.00,   0.00,  990.8,    0.5, -999.0
31-03-2023, 00:19:21,    167,    2.2,    7.8,   0.00,   0.00,  990.8,    0.7, -999.0
31-03-2023, 00:19:30,    166,    1.8,    7.7,   0.00,   0.00,  990.8,    0.7, -999.0
31-03-2023, 00:19:40,    168,    1.2,    7.9,   0.00,   0.00,  990.8,    0.5, -999.0
31-03-2023, 00:19:51,    167,    0.2,    7.8,   0.00,   0.00,  990.8,    0.4, -999.0
31-03-2023, 00:20:01,    159,    1.1,    7.7,   0.00,   0.00,  990.7,    0.7, -999.0
31-03-2023, 00:20:10,    130,    2.6,    7.8,   0.00,   0.00,  990.8,    0.4, -999.0
31-03-2023, 00:20:21,    130,    2.5,    7.8,   0.00,   0.00,  990.8,    0.7, -999.0
31-03-2023, 00:20:31,    154,    1.4,    7.9,   0.00,   0.00,  990.8,    0.6, -999.0
31-03-2023, 00:20:40,    156,    0.9,    7.9,   0.00,   0.00,  990.8,    0.6, -999.0
31-03-2023, 00:20:50,    157,    0.3,    7.9,   0.00,   0.00,  990.8,    0.6, -999.0
31-03-2023, 00:21:01,    156,    0.3,    7.8,   0.00,   0.01,  990.7,    0.7, -999.0
31-03-2023, 00:21:10,    154,    1.2,    7.9,   0.00,   0.00,  990.7,    0.3, -999.0
31-03-2023, 00:21:20,    155,    0.3,    7.8,   0.00,   0.00,  990.7,    0.4, -999.0
31-03-2023, 00:21:30,    155,    0.0,    7.8,   0.00,   0.00,  990.7,    0.6, -999.0
31-03-2023, 00:21:41,    155,    0.8,    7.8,   0.00,   0.00,  990.7,    0.6, -999.0
31-03-2023, 00:21:50,    156,    1.0,    7.9,   0.00,   0.00,  990.7,    0.6, -999.0
31-03-2023, 00:22:00,    156,    1.1,    7.9,   0.00,   0.00,  990.7,    0.5, -999.0
31-03-2023, 00:22:10,    159,    2.6,    7.9,   0.00,   0.00,  990.6,    0.5, -999.0
31-03-2023, 00:22:20,    137,    2.7,    7.9,   0.00,   0.00,  990.7,    0.7, -999.0
31-03-2023, 00:22:30,    173,    2.4,    7.9,   0.00,   0.00,  990.6,    0.6, -999.0
31-03-2023, 00:22:40,    172,    0.8,    7.8,   0.00,   0.00,  990.6,    0.6, -999.0
31-03-2023, 00:22:50,    152,    0.2,    7.8,   0.00,   0.00,  990.6,    0.4, -999.0
31-03-2023, 00:23:00,    136,    1.4,    7.9,   0.00,   0.00,  990.7,    0.3, -999.0
31-03-2023, 00:23:10,    117,    2.4,    7.9,   0.00,   0.00,  990.6,    0.4, -999.0
31-03-2023, 00:23:20,    116,    1.1,    7.9,   0.00,   0.00,  990.6,    0.5, -999.0
31-03-2023, 00:23:30,    115,    1.1,    8.0,   0.00,   0.00,  990.7,    0.7, -999.0
31-03-2023, 00:23:40,    115,    0.0,    7.9,   0.00,   0.00,  990.5,    0.5, -999.0
31-03-2023, 00:23:50,    116,    0.8,    7.9,   0.00,   0.00,  990.6,    0.5, -999.0
31-03-2023, 00:24:00,    116,    0.5,    8.0,   0.00,   0.00,  990.6,    0.6, -999.0
31-03-2023, 00:24:10,    115,    0.0,    7.9,   0.00,   0.00,  990.5,    0.7, -999.0
31-03-2023, 00:24:20,    116,    1.8,    7.8,   0.00,   0.00,  990.6,    0.6, -999.0
31-03-2023, 00:24:30,    130,    2.3,    7.9,   0.00,   0.00,  990.6,    0.5, -999.0
31-03-2023, 00:24:40,    130,    1.5,    7.8,   0.00,   0.00,  990.6,    0.4, -999.0
31-03-2023, 00:24:50,    131,    0.3,    7.9,   0.00,   0.00,  990.5,    0.3, -999.0
31-03-2023, 00:25:00,    130,    0.7,    7.9,   0.00,   0.00,  990.6,    0.6, -999.0
31-03-2023, 00:25:10,    132,    0.9,    8.0,   0.00,   0.00,  990.6,    0.6, -999.0
31-03-2023, 00:25:20,    161,    0.7,    7.9,   0.00,   0.00,  990.6,    0.7, -999.0
31-03-2023, 00:25:30,    159,    0.8,    7.8,   0.00,   0.00,  990.5,    0.5, -999.0
31-03-2023, 00:25:40,    147,    1.9,    8.0,   0.00,   0.00,  990.6,    0.5, -999.0
31-03-2023, 00:25:50,    127,    4.3,    7.9,   0.00,   0.00,  990.6,    0.3, -999.0
31-03-2023, 00:26:00,    164,    2.5,    7.8,   0.00,   0.00,  990.6,    0.4, -999.0
31-03-2023, 00:26:10,    162,    1.7,    7.8,   0.00,   0.00,  990.6,    0.5, -999.0
31-03-2023, 00:26:20,    125,    2.6,    7.9,   0.00,   0.00,  990.6,    0.6, -999.0
31-03-2023, 00:26:30,    125,    3.2,    8.0,   0.00,   0.00,  990.6,    0.4, -999.0
31-03-2023, 00:26:40,    127,    1.6,    8.0,   0.00,   0.00,  990.5,    0.5, -999.0
31-03-2023, 00:26:50,    127,    0.0,    7.7,   0.00,   0.00,  990.4,    0.2, -999.0
31-03-2023, 00:27:00,    127,    0.8,    7.9,   0.00,   0.00,  990.5,    0.2, -999.0
31-03-2023, 00:27:10,    156,    2.1,    7.9,   0.00,   0.00,  990.5,    0.6, -999.0
31-03-2023, 00:27:20,    156,    0.2,    7.9,   0.00,   0.00,  990.4,    0.5, -999.0
31-03-2023, 00:27:30,    156,    0.0,    7.9,   0.00,   0.00,  990.4,    0.6, -999.0
31-03-2023, 00:27:40,    156,    0.3,    7.8,   0.00,   0.00,  990.5,    0.3, -999.0
31-03-2023, 00:27:50,    156,    0.4,    7.9,   0.00,   0.00,  990.5,    0.4, -999.0
31-03-2023, 00:28:00,    156,    0.0,    7.8,   0.00,   0.00,  990.4,    0.7, -999.0
31-03-2023, 00:28:10,    156,    1.0,    8.0,   0.00,   0.00,  990.5,    0.4, -999.0
31-03-2023, 00:28:20,    149,    2.8,    7.9,   0.00,   0.00,  990.5,    0.5, -999.0
31-03-2023, 00:28:29,    139,    2.8,    7.9,   0.00,   0.00,  990.5,    0.6, -999.0
31-03-2023, 00:28:40,    122,    2.3,    7.9,   0.00,   0.00,  990.5,    0.6, -999.0
31-03-2023, 00:28:50,    129,    1.3,    8.0,   0.00,   0.00,  990.5,    0.5, -999.0
31-03-2023, 00:28:59,    147,    1.4,    8.0,   0.00,   0.00,  990.5,    0.4, -999.0
31-03-2023, 00:29:10,    148,    0.5,    7.8,   0.00,   0.00,  990.4,    0.6, -999.0
31-03-2023, 00:29:20,    153,    2.4,    7.9,   0.00,   0.00,  990.4,    0.5, -999.0
31-03-2023, 00:29:30,    162,    3.1,    7.9,   0.00,   0.00,  990.4,    0.7, -999.0
31-03-2023, 00:29:39,    142,    2.1,    7.9,   0.00,   0.00,  990.4,    0.5, -999.0
31-03-2023, 00:29:50,    150,    4.1,    7.9,   0.00,   0.00,  990.4,    0.6, -999.0
31-03-2023, 00:30:00,    150,    1.1,    7.9,   0.00,   0.00,  990.4,    0.6, -999.0
31-03-2023, 00:30:09,    150,    0.3,    7.8,   0.00,   0.00,  990.4,    0.7, -999.0
31-03-2023, 00:30:19,    150,    0.5,    7.9,   0.00,   0.00,  990.4,    0.6, -999.0
31-03-2023, 00:30:30,    150,    0.4,    7.9,   0.00,   0.00,  990.4,    0.5, -999.0
31-03-2023, 00:30:39,    157,    2.2,    7.9,   0.00,   0.00,  990.4,    0.5, -999.0
31-03-2023, 00:30:49,    163,    0.8,    7.9,   0.00,   0.00,  990.4,    0.4, -999.0
31-03-2023, 00:30:59,    163,    0.0,    7.8,   0.00,   0.00,  990.3,    0.3, -999.0
31-03-2023, 00:31:10,    163,    0.0,    7.8,   0.00,   0.00,  990.3,    0.3, -999.0
31-03-2023, 00:31:19,    162,    1.1,    7.8,   0.00,   0.00,  990.4,    0.8, -999.0
31-03-2023, 00:31:29,    162,    1.2,    7.9,   0.00,   0.00,  990.4,    0.5, -999.0
31-03-2023, 00:31:39,    160,    2.0,    7.8,   0.00,   0.00,  990.4,    0.7, -999.0
31-03-2023, 00:31:49,    161,    0.9,    7.9,   0.00,   0.00,  990.4,    0.3, -999.0
31-03-2023, 00:31:59,    171,    1.2,    7.8,   0.00,   0.00,  990.3,    0.4, -999.0
31-03-2023, 00:32:09,    170,    1.3,    7.9,   0.00,   0.00,  990.3,    0.6, -999.0
31-03-2023, 00:32:19,    169,    0.5,    7.9,   0.00,   0.00,  990.3,    0.6, -999.0
31-03-2023, 00:32:29,    169,    0.8,    7.9,   0.00,   0.00,  990.4,    0.6, -999.0
31-03-2023, 00:32:39,    169,    0.0,    7.8,   0.00,   0.00,  990.3,    0.6, -999.0
31-03-2023, 00:32:49,    169,    0.0,    7.8,   0.00,   0.00,  990.2,    0.2, -999.0
31-03-2023, 00:32:59,    169,    0.0,    7.9,   0.00,   0.00,  990.2,    0.7, -999.0
31-03-2023, 00:33:09,    147,    1.1,    7.9,   0.00,   0.00,  990.3,    0.5, -999.0
31-03-2023, 00:33:19,    147,    1.0,    7.9,   0.00,   0.00,  990.3,    0.3, -999.0
31-03-2023, 00:33:29,    147,    0.2,    7.9,   0.00,   0.00,  990.2,    0.8, -999.0
31-03-2023, 00:33:39,    164,    0.2,    7.9,   0.00,   0.00,  990.2,    0.3, -999.0
31-03-2023, 00:33:49,    157,    1.8,    8.0,   0.00,   0.00,  990.3,    0.7, -999.0
31-03-2023, 00:33:59,    154,    2.1,    7.9,   0.00,   0.00,  990.3,    0.5, -999.0
31-03-2023, 00:34:09,    157,    1.0,    7.9,   0.00,   0.00,  990.2,    0.5, -999.0
31-03-2023, 00:34:19,    158,    0.1,    7.9,   0.00,   0.00,  990.2,    0.7, -999.0
31-03-2023, 00:34:29,    159,    1.7,    7.9,   0.00,   0.00,  990.2,    0.3, -999.0
31-03-2023, 00:34:39,    158,    1.5,    7.9,   0.00,   0.00,  990.3,    0.5, -999.0
31-03-2023, 00:34:49,    158,    0.7,    7.9,   0.00,   0.00,  990.2,    0.7, -999.0
31-03-2023, 00:34:59,    158,    0.0,    7.9,   0.00,   0.00,  990.1,    0.4, -999.0
31-03-2023, 00:35:09,    131,    1.5,    7.9,   0.00,   0.00,  990.3,    0.6, -999.0
31-03-2023, 00:35:19,    135,    2.2,    8.0,   0.00,   0.00,  990.3,    0.4, -999.0
31-03-2023, 00:35:29,    159,    2.8,    8.0,   0.00,   0.00,  990.2,    0.5, -999.0
31-03-2023, 00:35:39,    118,    1.0,    7.8,   0.00,   0.00,  990.2,    0.6, -999.0
31-03-2023, 00:35:49,    146,    1.9,    8.0,   0.00,   0.00,  990.2,    0.5, -999.0
31-03-2023, 00:35:59,    136,    2.8,    8.0,   0.00,   0.00,  990.2,    0.4, -999.0
31-03-2023, 00:36:09,    135,    1.6,    8.0,   0.00,   0.00,  990.2,    0.4, -999.0
31-03-2023, 00:36:19,    136,    1.2,    7.9,   0.00,   0.00,  990.2,    0.6, -999.0
31-03-2023, 00:36:29,    136,    0.3,    7.9,   0.00,   0.00,  990.1,    0.5, -999.0
31-03-2023, 00:36:39,    136,    0.2,    7.9,   0.00,   0.00,  990.2,    0.6, -999.0
31-03-2023, 00:36:49,    136,    1.0,    7.9,   0.00,   0.00,  990.2,    0.5, -999.0
31-03-2023, 00:36:59,    137,    1.4,    7.9,   0.00,   0.00,  990.2,    0.5, -999.0
31-03-2023, 00:37:09,    136,    0.1,    7.9,   0.00,   0.00,  990.1,    0.8, -999.0
31-03-2023, 00:37:19,    131,    0.9,    7.8,   0.00,   0.00,  990.2,    0.8, -999.0
31-03-2023, 00:37:29,    130,    2.1,    8.0,   0.00,   0.00,  990.2,    0.4, -999.0
31-03-2023, 00:37:39,    131,    1.4,    7.9,   0.00,   0.00,  990.2,    0.8, -999.0
31-03-2023, 00:37:49,    132,    0.6,    7.9,   0.00,   0.00,  990.2,    0.5, -999.0
31-03-2023, 00:37:58,    132,    0.4,    7.9,   0.00,   0.00,  990.1,    0.5, -999.0
31-03-2023, 00:38:09,    132,    0.0,    7.9,   0.00,   0.00,  990.1,    0.3, -999.0
31-03-2023, 00:38:19,    169,    0.8,    7.8,   0.00,   0.00,  990.2,    0.5, -999.0
31-03-2023, 00:38:29,    165,    1.5,    7.9,   0.00,   0.00,  990.2,    0.5, -999.0
31-03-2023, 00:38:38,    161,    3.2,    7.9,   0.00,   0.00,  990.2,    0.4, -999.0
31-03-2023, 00:38:49,    146,    2.8,    7.8,   0.00,   0.00,  990.2,    0.4, -999.0
31-03-2023, 00:38:59,    152,    2.3,    7.9,   0.00,   0.00,  990.1,    0.6, -999.0
31-03-2023, 00:39:08,    154,    3.2,    7.9,   0.00,   0.00,  990.2,    0.6, -999.0
31-03-2023, 00:39:18,    166,    2.6,    7.9,   0.00,   0.00,  990.2,    0.6, -999.0
31-03-2023, 00:39:29,    160,    1.6,    7.8,   0.00,   0.00,  990.1,    0.5, -999.0
31-03-2023, 00:39:38,    162,    0.6,    7.9,   0.00,   0.00,  990.1,    0.4, -999.0
31-03-2023, 00:39:48,    162,    0.0,    7.9,   0.00,   0.01,  990.0,    0.6, -999.0
31-03-2023, 00:39:59,    162,    0.9,    7.9,   0.00,   0.00,  990.1,    0.5, -999.0
31-03-2023, 00:40:09,    162,    1.2,    7.9,   0.00,   0.00,  990.1,    0.5, -999.0
31-03-2023, 00:40:18,    161,    0.3,    7.9,   0.00,   0.00,  990.0,    0.4, -999.0
31-03-2023, 00:40:28,    161,    0.3,    8.0,   0.00,   0.00,  990.1,    0.5, -999.0
31-03-2023, 00:40:39,    161,    0.3,    8.0,   0.00,   0.00,  990.0,    0.7, -999.0
31-03-2023, 00:40:48,    161,    0.1,    7.9,   0.00,   0.00,  990.0,    0.8, -999.0
31-03-2023, 00:40:58,    155,    3.0,    7.9,   0.00,   0.00,  990.1,    0.5, -999.0
31-03-2023, 00:41:08,    153,    2.6,    7.9,   0.00,   0.00,  990.1,    0.5, -999.0
31-03-2023, 00:41:18,    152,    1.6,    7.9,   0.00,   0.00,  990.1,    0.6, -999.0
31-03-2023, 00:41:28,    152,    0.1,    7.9,   0.00,   0.00,  990.0,    0.3, -999.0
31-03-2023, 00:41:38,    152,    0.6,    7.9,   0.00,   0.00,  990.0,    0.6, -999.0
31-03-2023, 00:41:48,    152,    1.2,    8.0,   0.00,   0.00,  990.1,    0.6, -999.0
31-03-2023, 00:41:58,    152,    1.0,    8.0,   0.00,   0.00,  990.0,    0.5, -999.0
31-03-2023, 00:42:08,    152,    0.5,    7.9,   0.00,   0.00,  990.0,    0.6, -999.0
31-03-2023, 00:42:18,    152,    0.1,    7.9,   0.00,   0.00,  989.9,    0.4, -999.0
31-03-2023, 00:42:28,    153,    2.6,    8.1,   0.00,   0.00,  990.0,    0.5, -999.0
31-03-2023, 00:42:38,    144,    1.8,    7.9,   0.00,   0.00,  990.0,    0.5, -999.0
31-03-2023, 00:42:48,    153,    3.2,    7.9,   0.00,   0.00,  990.0,    0.4, -999.0
31-03-2023, 00:42:58,    153,    1.1,    7.9,   0.00,   0.00,  990.0,    0.7, -999.0
31-03-2023, 00:43:08,    153,    0.0,    7.8,   0.00,   0.00,  989.9,    0.3, -999.0
31-03-2023, 00:43:18,    153,    0.3,    7.9,   0.00,   0.00,  990.0,    0.5, -999.0
31-03-2023, 00:43:28,    183,    0.8,    8.0,   0.00,   0.00,  990.0,    0.5, -999.0
31-03-2023, 00:43:38,    159,    1.3,    8.1,   0.00,   0.00,  990.0,    0.4, -999.0
31-03-2023, 00:43:48,    159,    0.7,    8.0,   0.00,   0.00,  990.0,    0.5, -999.0
31-03-2023, 00:43:58,    159,    1.9,    7.9,   0.00,   0.00,  990.0,    0.5, -999.0
31-03-2023, 00:44:08,    161,    1.0,    7.9,   0.00,   0.00,  990.0,    0.5, -999.0
31-03-2023, 00:44:18,    156,    1.0,    7.9,   0.00,   0.00,  989.9,    0.7, -999.0
31-03-2023, 00:44:28,    156,    0.4,    7.9,   0.00,   0.01,  989.9,    0.4, -999.0
31-03-2023, 00:44:38,    156,    0.1,    7.8,   0.00,   0.00,  989.9,    0.4, -999.0
31-03-2023, 00:44:48,    156,    0.2,    7.9,   0.00,   0.00,  989.9,    0.4, -999.0
31-03-2023, 00:44:58,    156,    0.4,    7.9,   0.00,   0.00,  990.0,    0.8, -999.0
31-03-2023, 00:45:08,    158,    2.0,    7.9,   0.00,   0.00,  990.0,    0.4, -999.0
31-03-2023, 00:45:18,    158,    0.1,    7.8,   0.00,   0.00,  989.9,    0.4, -999.0
31-03-2023, 00:45:28,    158,    0.6,    7.9,   0.00,   0.00,  989.9,    0.5, -999.0
31-03-2023, 00:45:38,    157,    0.0,    7.8,   0.00,   0.00,  989.9,    0.5, -999.0
31-03-2023, 00:45:48,    158,    0.5,    7.8,   0.00,   0.00,  989.9,    0.5, -999.0
31-03-2023, 00:45:58,    157,    1.3,    8.0,   0.00,   0.00,  990.0,    0.4, -999.0
31-03-2023, 00:46:08,    137,    1.5,    8.0,   0.00,   0.01,  990.0,    0.3, -999.0
31-03-2023, 00:46:18,    153,    3.8,    7.9,   0.00,   0.00,  990.0,    0.6, -999.0
31-03-2023, 00:46:28,    149,    3.2,    7.9,   0.00,   0.00,  990.0,    0.5, -999.0
31-03-2023, 00:46:38,    151,    3.6,    7.9,   0.00,   0.00,  989.9,    0.3, -999.0
31-03-2023, 00:46:48,    154,    2.6,    7.8,   0.00,   0.00,  989.9,    0.5, -999.0